CAPE
0 8 2 0 0 0 0 0 0 6 48 186 1192 1507 1384 1522 1629 1674 1811 1736 1712 1823 1934 1842 1953 2624 1685 1419 1407 1296 1084 1028 637 346 169 766 1709 1848 1533 1856 1851 1791 1342
0 0 0 0 0 0 0 0 0 0 0 2 61 322 1330 1456 1570 1812 1713 1623 1644 1705 1776 1904 1851 1719 2107 2564 1736 2425 1470 1558 1069 1802 1237 723 1728 1827 1751 2180 1825 1248 1204
0 0 0 0 0 0 0 0 0 0 0 0 0 0 0 322 1395 1406 1722 1885 1737 1797 1796 2021 1905 2143 2180 1948 2038 1936 1699 1592 1744 1565 1304 1062 755 897 1380 1721 1563 1638 1596
0 0 0 0 0 0 0 0 0 0 0 0 0 0 0 0 18 1040 1558 1267 1410 1539 1727 1945 2023 2213 2585 2780 2418 2634 2641 2122 1970 1564 1243 1165 1124 1157 1082 911 1005 834 1048
0 0 0 0 0 0 3 7 7 2 0 1 0 0 0 0 0 19 362 1293 1433 1350 1583 1673 1711 1719 1294 1459 2274 2654 2504 2169 1829 1236 1015 995 1295 1082 1350 1083 1066 923 1221
0 0 0 0 0 0 1 6 13 22 29 23 14 0 0 0 0 0 0 0 352 1549 1536 1441 1089 883 764 171 91 49 246 2106 2187 1163 942 1072 2330 1709 996 884 916 798 713
0 0 0 1 0 1 2 4 9 22 25 12 10 9 2 0 0 0 0 0 0 446 1485 1360 1450 1271 99 12 0 0 0 0 42 1677 2370 2207 2133 2247 2238 1840 1830 1322 1150
1 2 1 4 5 6 9 7 8 8 15 13 6 8 4 0 0 0 0 0 0 86 501 1243 1159 1219 125 61 0 0 0 156 510 291 890 1577 2023 2310 2629 2428 2452 2170 1728
12 16 17 11 13 19 22 24 8 19 15 24 22 33 25 9 0 0 0 0 0 1 313 1317 1219 969 185 0 0 0 0 171 677 423 198 245 205 128 221 1420 1232 813 899
22 26 35 36 45 72 66 50 49 37 42 22 28 47 33 28 0 0 0 0 0 0 48 847 596 447 251 0 0 0 1 136 798 795 907 59 22 42 0 121 634 1076 936
20 21 19 39 20 26 38 15 10 31 45 22 10 22 50 52 23 0 0 0 0 0 5 543 919 88 9 0 0 171 154 276 458 882 743 1257 827 546 307 192 186 362 518
7 12 14 5 5 6 7 7 11 14 15 22 8 4 4 29 8 0 0 0 0 7 11 371 535 522 11 0 1 9 0 0 364 119 133 248 134 62 155 752 320 283 885
0 0 0 3 6 12 11 10 5 6 7 6 5 2 3 18 7 0 0 0 0 4 1 67 563 376 0 0 1 1 1 4 3 6 12 69 102 197 497 388 418 571 674
0 0 0 20 15 6 13 15 13 3 4 7 6 3 4 1 5 3 1 179 6 0 0 0 41 0 0 15 6 0 4 3 4 3 3 6 27 156 250 295 152 141 80
29 2 7 45 20 14 14 10 5 4 2 2 6 4 7 3 0 3 4 93 276 56 0 2 1 1 1 2 2 3 6 9 6 11 31 88 107 170 178 227 152 121 57
83 8 19 34 30 23 24 14 3 0 0 0 0 0 5 0 0 0 0 0 1 1 0 2 1 1 1 1 2 18 28 50 65 73 205 59 32 21 26 90 88 127 75
89 185 99 56 75 28 7 20 17 15 0 0 1 0 0 0 0 0 1 1 1 0 7 52 34 20 1 2 3 28 29 5 3 4 11 12 4 2 4 6 6 7 4
84 32 85 174 185 48 24 1 25 7 19 8 2 0 0 1 1 1 0 0 5 7 82 62 69 57 73 71 59 4 3 4 9 17 11 5 2 4 8 8 3 3 6
82 77 73 114 103 41 39 35 32 28 14 11 5 0 0 0 0 1 1 23 116 32 2 11 5 4 4 38 11 4 11 2 0 0 0 1 6 2 2 2 1 0 0
78 42 23 54 78 61 144 100 51 70 56 27 9 3 1 13 10 8 4 4 14 23 19 21 22 16 59 50 43 82 109 82 33 0 0 0 0 0 0 0 0 0 0
38 48 48 52 70 117 89 109 124 72 68 99 73 21 5 3 2 2 1 5 3 4 22 31 4 20 23 7 0 0 0 0 0 0 0 0 0 0 0 0 0 0 0
24 43 52 37 25 29 44 96 76 80 56 57 122 94 19 29 13 1 0 0 0 0 0 0 0 0 1 3 0 0 0 0 0 3 2 2 3 0 0 0 0 0 19
12 22 56 33 14 3 23 13 7 3 18 37 36 23 65 55 31 14 0 0 0 0 0 0 0 0 0 0 0 0 0 0 0 26 25 18 14 1 0 0 0 0 0
6 10 31 28 12 2 13 26 34 2 5 13 15 9 15 17 16 10 1 0 0 0 0 0 0 0 0 0 0 0 0 0 0 0 1 17 41 38 3 0 0 0 0
5 8 14 16 13 0 2 10 10 15 27 40 36 45 38 19 8 0 0 0 0 0 0 0 0 0 0 0 0 0 0 0 0 0 0 0 0 0 0 0 19 46 17
18 2 3 11 7 0 0 0 0 0 0 0 5 6 3 4 12 12 0 0 0 0 0 0 0 0 0 0 0 0 0 0 0 0 0 0 0 0 0 0 0 0 0
CIN
0 -410 -248 0 0 0 0 0 0 -214 -274 -200 -33 -24 -47 -34 -30 -20 -16 -19 -9 -21 -20 -17 -17 -8 -9 -4 -2 0 0 0 -4 -121 -133 -27 0 -3 -14 -7 -6 -3 -3
0 0 0 0 0 0 0 0 0 0 0 -18 -275 -171 -22 -26 -14 -3 -6 -15 -8 -10 -12 -6 -15 -21 -13 -10 -12 0 -1 -2 -4 0 -1 -15 0 0 -9 -9 -10 -5 -5
0 0 0 0 0 0 0 0 0 0 0 0 0 0 0 -167 -12 -8 0 0 -1 0 -8 -3 -8 -6 -14 -14 -12 -7 -1 -5 -1 0 0 0 -11 -11 -2 -1 -10 -13 -14
0 0 0 0 0 0 0 0 0 0 0 0 0 0 0 0 -176 -24 0 -6 -4 -1 0 -2 -1 0 0 -2 -19 -9 -5 -6 0 -1 0 0 0 -2 -11 -36 -23 -10 -6
0 0 0 0 0 0 0 0 0 0 0 0 0 0 0 0 0 -65 -127 0 0 0 0 0 0 -3 -19 -19 0 0 -4 -1 0 0 0 -1 0 0 0 -2 -7 -21 -5
0 0 0 0 0 0 0 0 0 0 0 0 0 0 0 0 0 0 0 0 -78 0 0 0 -11 -16 -9 -136 -152 -163 -83 0 0 0 0 0 0 0 -5 -1 0 -6 -11
0 0 0 0 0 0 0 0 0 0 0 0 0 0 0 0 0 0 0 0 0 -24 0 0 0 0 -200 -324 0 0 0 0 -103 -14 0 0 0 0 0 0 0 0 0
0 0 0 0 0 0 0 0 0 0 0 0 0 0 0 0 0 0 0 0 0 -147 -20 0 0 0 -222 -351 0 0 0 -218 -131 -115 -9 0 0 0 0 0 0 0 0
0 0 0 -3 -4 -1 0 0 0 0 0 0 0 0 0 0 0 0 0 0 0 0 -59 0 0 0 -234 0 0 0 0 -120 -7 -34 -105 -108 -105 -104 -3 0 0 0 0
0 0 0 0 0 0 0 0 0 0 0 0 0 0 0 0 0 0 0 0 0 0 -124 -1 -24 -75 -180 0 0 0 -38 -87 0 0 0 -106 -8 -133 0 -63 -2 0 0
0 -9 -8 -3 0 -1 0 0 0 0 0 0 -1 0 0 0 0 0 0 0 0 0 0 -37 -4 -333 -286 0 0 -77 -106 -33 -3 0 -3 0 0 -3 -28 -35 -36 -7 -5
-40 -41 -3 -12 0 0 0 0 0 0 0 -1 0 0 0 0 0 0 0 0 0 0 -78 -64 -57 -46 -266 0 0 -71 0 0 -13 -65 -70 -13 -27 -73 -49 -2 -21 -19 0
-4 -2 -4 -23 -1 0 0 0 0 0 0 0 0 0 0 0 0 0 0 0 0 0 0 -166 -26 -55 0 0 0 0 0 0 0 -14 -8 -113 -123 -48 -2 -1 -1 0 0
0 0 0 -2 -5 -1 -1 0 0 0 0 0 0 0 0 0 0 0 0 -16 -6 0 0 0 -135 0 0 -46 -19 0 0 0 0 0 0 0 -31 -2 -20 -13 -15 -8 -17
-49 -1 -31 -17 -2 -1 0 0 0 0 0 0 0 0 0 0 0 0 -4 -3 -20 -15 0 0 0 0 0 0 0 0 0 0 0 -7 -32 -25 -12 -4 -1 -1 -12 -27 -33
-54 -75 -59 -32 -2 -3 -2 -1 -1 0 0 0 0 0 0 0 0 0 0 0 0 0 0 0 0 0 0 0 0 -183 -97 -74 -81 -93 -24 -96 -27 -23 0 -47 -41 -12 -23
-41 -26 -32 -50 -2 0 -13 -1 0 -1 0 0 0 0 0 0 0 0 0 0 0 0 -2 -86 -137 -161 0 0 0 -153 -128 -6 0 0 0 0 0 0 0 0 0 0 0
-70 -157 -86 -25 -8 0 -19 -5 -2 0 0 0 -1 0 0 0 0 0 0 0 0 -35 -84 -115 -103 -99 -93 -88 -100 0 0 0 0 0 0 0 0 0 0 0 0 0 0
-130 -112 -105 -56 -62 -29 -2 -29 0 -4 -2 -1 -2 0 0 0 0 0 0 -62 -60 -98 0 -127 -39 0 0 -107 -1 -5 -3 -1 0 0 0 0 0 0 0 0 0 0 0
-90 -191 -211 -133 -96 -60 -7 -15 -11 0 -1 -1 -2 -3 0 -1 0 0 0 0 -8 -106 0 -7 -28 -4 0 0 -3 -1 0 -3 -6 0 0 0 0 0 0 0 0 0 0
-68 -76 -158 -108 -117 -134 -116 -33 -12 0 -5 0 0 -18 -56 0 0 0 0 0 0 0 -8 -12 -50 -34 -30 -42 -1 0 0 0 0 0 0 0 0 0 0 0 0 0 0
-38 -30 -25 -39 -104 -134 -139 -128 -68 -34 -32 -4 -6 0 -29 -19 -6 -13 0 0 0 0 0 0 0 0 0 0 0 0 0 0 0 -58 -102 -95 -60 -66 0 0 0 0 0
-34 -29 -10 -8 -54 -34 -56 -86 -90 -100 -116 -53 -43 -48 -11 -2 -17 -26 -5 0 0 0 0 0 0 0 0 0 0 0 0 0 0 -21 -8 -8 -14 -11 0 0 0 0 0
-18 -33 -18 -12 -10 -6 -11 -17 -15 -26 -31 -26 -28 -53 -58 -55 -56 -53 -88 0 0 0 0 0 0 0 0 0 0 0 0 0 0 0 -5 -20 -10 0 -13 0 0 0 0
-17 -12 -10 -12 -11 0 -5 -5 -3 -4 -2 -3 -4 -3 -5 -16 -22 0 0 0 0 0 0 0 0 0 0 0 0 0 0 0 0 0 0 0 0 0 0 0 -19 -5 -43
-15 -15 -17 -11 -10 0 0 0 0 0 0 0 -1 -3 -2 -1 -2 -7 -2 0 0 0 0 0 0 0 0 0 0 0 0 0 0 0 0 0 0 0 0 0 0 0 0
Wind_Speed
11 9 7 6 7 6 6 6 7 9 10 11 11 11 14 15 15 14 14 14 15 14 13 13 15 13 11 10 10 11 12 11 14 12 11 10 11 12 12 10 9 9 8
10 10 10 11 10 10 10 10 10 10 10 10 11 11 11 11 15 15 17 16 16 17 17 16 17 12 14 12 11 11 12 11 12 14 12 11 12 11 13 11 10 10 9
11 12 13 13 13 13 13 13 11 12 12 11 10 10 11 12 12 13 14 16 17 17 17 16 17 16 14 12 12 11 11 11 11 12 13 11 11 9 10 11 10 10 10
14 14 14 13 14 15 15 15 15 13 13 13 12 11 11 12 13 14 14 14 14 16 18 17 17 16 16 14 12 12 10 10 11 12 12 12 11 10 9 10 10 9 9
14 15 16 17 17 16 16 15 15 16 15 14 13 12 12 12 11 12 14 13 14 15 15 17 17 18 17 15 9 9 10 10 11 13 13 13 12 11 11 9 9 9 8
19 19 18 19 18 18 17 17 17 16 15 16 15 14 14 11 12 13 15 16 16 15 15 15 15 14 11 5 7 13 17 14 15 15 14 15 14 11 11 11 10 10 10
19 19 20 19 20 19 20 19 19 18 17 18 18 17 17 17 14 15 19 15 16 16 15 14 14 9 13 14 19 16 22 27 27 19 18 16 15 13 11 11 12 12 11
18 18 18 18 19 19 19 19 19 18 18 18 18 18 18 16 16 16 19 18 17 18 18 17 16 16 17 16 16 17 23 20 17 14 17 17 14 12 13 11 11 11 12
16 18 19 19 20 20 20 20 19 18 18 18 18 19 19 18 17 17 17 16 17 19 19 18 18 20 22 20 14 15 15 14 9 12 18 18 15 8 7 7 8 8 12
16 18 18 19 20 21 21 21 19 20 19 16 19 19 22 21 21 20 20 14 17 16 16 18 21 20 21 15 15 13 14 16 13 14 12 8 12 14 14 12 11 12 9
15 15 16 18 20 21 22 21 21 19 21 19 18 18 21 21 20 21 22 17 16 15 14 13 12 18 18 15 19 15 15 11 12 12 11 9 10 10 10 10 13 11 11
13 12 15 16 16 16 21 20 21 20 20 19 17 16 16 19 23 24 24 26 24 17 17 12 13 13 17 19 15 15 11 8 10 6 6 9 11 8 8 9 11 13 12
15 15 16 18 18 18 19 18 16 17 16 16 14 14 16 15 15 17 22 26 27 20 17 15 13 14 17 13 15 14 13 8 8 8 8 8 8 8 8 7 10 13 14
15 15 15 17 20 20 15 13 14 14 15 14 13 14 13 13 13 13 14 11 22 18 20 13 11 10 10 10 7 10 7 7 8 7 6 6 5 7 7 7 7 7 8
16 14 13 15 18 18 17 15 14 16 16 13 13 13 12 14 14 16 8 8 9 9 8 7 6 7 6 5 5 6 6 6 6 5 5 5 5 5 5 5 5 5 6
16 10 10 13 12 15 16 17 22 21 20 20 26 18 12 17 16 18 21 22 12 14 7 8 7 7 8 7 6 5 4 5 3 2 2 1 2 3 4 5 4 4 4
13 12 11 12 9 13 17 18 19 17 11 9 14 18 26 29 24 18 17 15 19 14 8 7 7 7 6 6 5 5 3 3 4 3 3 3 3 2 2 3 4 3 2
13 16 10 8 8 8 13 16 16 17 14 13 12 11 12 16 21 23 20 12 7 7 6 7 6 5 4 4 5 6 6 5 6 7 6 5 5 5 5 5 5 6 6
10 10 9 9 8 5 7 11 12 15 16 14 13 17 20 19 8 7 8 2 4 6 7 7 7 6 6 7 6 6 6 6 6 6 3 5 5 3 4 3 5 7 7
9 14 11 8 8 6 5 6 12 11 11 15 16 17 17 15 14 10 10 7 9 9 8 8 7 7 7 6 5 5 6 6 5 3 3 3 3 3 2 4 3 6 5
8 9 10 6 8 7 6 5 6 9 9 7 9 13 22 12 15 15 13 11 10 9 8 8 8 8 7 7 8 6 6 5 4 3 3 1 1 2 2 1 3 4 6
8 9 8 7 6 7 4 6 6 7 7 7 6 6 12 9 9 12 10 10 11 10 9 9 9 8 7 6 6 7 6 5 3 2 3 2 0 1 2 2 3 3 4
7 9 8 7 5 7 6 6 3 4 7 6 6 7 4 3 3 5 8 9 9 9 10 9 8 8 7 8 9 8 8 8 7 7 7 6 5 4 4 3 4 3 3
7 8 8 7 6 6 6 6 6 5 4 4 4 4 4 5 6 8 6 6 7 8 7 6 7 9 8 11 10 11 11 10 9 10 10 8 7 5 6 6 7 8 6
8 7 8 7 7 6 6 7 8 8 7 7 7 7 6 5 6 7 7 6 7 8 9 8 9 12 16 18 16 16 11 14 14 11 9 11 11 10 9 7 7 3 4
7 7 7 6 6 6 6 7 7 7 8 7 6 6 7 7 6 6 5 5 6 7 8 7 9 12 13 12 13 10 9 12 12 11 9 8 8 8 8 7 9 6 7
Wind_Direction
3 354 345 335 327 327 321 315 314 315 318 317 307 286 275 274 270 264 255 255 246 247 247 246 248 251 250 248 247 249 254 254 265 273 275 274 273 275 285 284 277 273 269
354 337 321 316 316 309 304 306 304 301 305 309 313 310 296 274 271 264 261 262 254 250 250 249 246 242 241 246 250 248 251 251 254 269 275 277 267 272 278 276 277 280 278
341 337 326 318 315 309 305 298 296 296 296 299 300 302 307 300 284 270 265 258 259 259 256 249 246 242 237 243 238 246 247 247 248 259 275 276 275 274 273 267 268 274 270
331 324 319 319 316 308 306 302 294 285 283 285 285 292 297 296 295 283 270 264 256 256 258 253 251 244 245 240 234 242 251 258 251 254 264 273 266 257 262 275 277 265 267
328 327 325 320 315 311 309 305 295 290 284 279 277 283 286 288 286 295 291 276 263 262 255 253 251 247 246 247 243 242 244 251 261 260 260 262 260 257 249 258 269 278 273
341 335 329 324 319 313 307 303 301 296 289 284 280 281 281 278 286 287 288 287 286 270 257 251 244 241 229 191 233 261 266 263 255 263 262 257 261 254 260 263 263 269 274
333 329 323 320 316 314 311 306 300 295 293 285 281 278 275 273 265 261 271 278 275 268 261 246 232 215 178 197 205 204 238 240 240 251 256 249 258 256 261 259 250 258 254
319 318 316 311 307 305 302 299 297 292 285 283 282 278 273 269 257 252 259 274 272 266 260 248 227 211 211 221 232 233 244 244 234 246 247 259 259 259 255 257 266 267 262
314 311 308 304 301 297 292 287 285 284 281 276 272 271 268 268 256 251 257 269 267 262 256 246 233 222 218 219 221 240 265 262 237 208 237 239 239 260 272 282 263 260 262
314 310 304 298 294 292 287 285 283 278 275 276 275 269 265 266 261 254 252 261 262 258 257 251 229 217 222 208 221 236 254 253 248 249 235 249 247 246 227 225 242 248 246
310 301 294 295 288 283 284 284 282 278 274 269 268 268 266 262 261 250 245 251 254 254 253 245 238 210 223 207 213 227 233 251 253 261 261 253 243 242 248 228 245 246 243
293 291 296 295 298 292 284 279 275 271 267 264 262 263 261 260 253 255 249 244 249 248 249 246 240 208 208 210 204 225 232 243 252 252 249 250 254 255 254 244 221 234 233
310 303 310 311 309 305 298 289 278 268 263 261 256 259 262 262 257 242 244 243 236 240 250 248 233 206 201 210 220 212 214 222 223 229 233 242 253 262 270 263 254 249 243
296 292 303 314 319 314 306 295 292 268 259 253 249 255 257 259 257 264 266 243 235 236 240 247 220 189 188 203 188 194 202 202 216 231 239 245 242 241 251 252 264 265 237
289 295 301 305 320 319 318 305 292 281 263 248 244 248 251 255 255 264 276 305 275 227 216 208 181 178 178 190 196 181 178 182 191 203 217 225 227 229 238 241 249 252 234
293 297 290 295 316 333 330 333 312 296 275 235 244 252 260 251 251 267 288 287 281 267 202 202 190 182 184 180 175 168 161 178 171 195 225 235 301 320 302 278 276 262 249
291 294 293 291 317 336 344 341 347 342 302 272 251 247 247 247 255 257 259 270 286 252 211 187 174 163 151 142 149 174 124 136 121 115 124 107 88 65 1 357 353 357 341
303 280 282 285 297 330 360 346 347 346 349 7 5 308 292 248 240 244 246 252 220 206 161 154 141 148 143 140 134 134 130 131 124 118 104 86 77 71 75 67 58 60 51
295 286 293 298 288 302 317 346 339 350 354 358 5 9 359 343 51 123 165 215 144 117 111 102 96 98 97 111 101 110 122 120 116 118 109 99 96 97 104 84 83 64 68
301 285 283 292 296 275 271 330 328 338 353 8 12 10 6 5 28 43 56 68 79 82 80 83 86 76 81 93 94 107 127 125 120 117 103 112 133 149 152 131 141 127 126
304 309 303 311 292 277 250 263 299 321 333 352 26 22 4 3 17 25 16 35 46 38 51 63 69 68 74 78 76 76 75 66 53 51 54 99 170 180 176 176 159 170 150
312 312 321 327 307 295 296 263 267 280 295 307 313 335 348 31 29 32 17 26 28 36 28 44 52 48 39 49 65 65 63 64 46 88 115 76 91 45 103 74 99 132 160
311 316 319 330 331 330 342 329 318 262 265 279 316 340 17 21 50 38 22 17 28 40 35 24 40 54 50 49 48 45 52 47 40 23 41 47 45 35 20 37 43 60 56
305 309 312 318 317 329 345 350 358 359 355 328 338 319 329 339 1 17 49 66 66 73 79 78 54 60 64 70 61 53 48 39 37 43 36 37 35 51 72 63 37 36 49
304 309 314 317 323 332 336 344 350 356 10 16 15 18 31 43 45 47 48 54 56 67 71 82 78 72 72 73 68 66 48 48 40 22 36 41 39 29 20 26 11 29 43
291 302 311 316 329 341 345 347 354 356 358 4 10 18 20 22 31 42 54 62 75 82 86 88 89 89 83 74 70 66 54 44 39 12 17 25 22 23 6 12 14 6 11